TimePDT,TemperatureF,Dew PointF,Humidity,Sea Level PressureIn,VisibilityMPH,Wind Direction,Wind SpeedMPH,Gust SpeedMPH,PrecipitationIn,Events,Conditions,WindDirDegrees,DateUTC
12:55 AM,62.1,55.9,80,29.89,10.0,Calm,Calm,-,N/A,,Clear,0,2013-08-23 07:55:00
1:55 AM,62.1,55.0,78,29.87,10.0,East,3.5,-,N/A,,Clear,90,2013-08-23 08:55:00
2:55 AM,57.9,53.1,84,29.86,10.0,West,3.5,-,N/A,,Clear,270,2013-08-23 09:55:00
3:55 AM,59.0,53.1,81,29.86,10.0,Calm,Calm,-,N/A,,Clear,0,2013-08-23 10:55:00
4:55 AM,57.9,54.0,87,29.86,10.0,Calm,Calm,-,N/A,,Clear,0,2013-08-23 11:55:00
5:55 AM,57.9,52.0,81,29.87,10.0,Calm,Calm,-,N/A,,Clear,0,2013-08-23 12:55:00
6:55 AM,57.9,52.0,81,29.88,10.0,NE,3.5,-,N/A,,Clear,50,2013-08-23 13:55:00
7:55 AM,63.0,55.9,78,29.88,10.0,Calm,Calm,-,N/A,,Clear,0,2013-08-23 14:55:00
8:55 AM,66.9,57.0,70,29.88,7.0,Calm,Calm,-,N/A,,Clear,0,2013-08-23 15:55:00
9:55 AM,71.1,55.0,57,29.88,10.0,Calm,Calm,-,N/A,,Clear,0,2013-08-23 16:55:00
10:55 AM,73.9,57.0,55,29.88,10.0,West,5.8,-,N/A,,Clear,260,2013-08-23 17:55:00
11:55 AM,75.9,55.0,48,29.86,10.0,WSW,8.1,-,N/A,,Clear,240,2013-08-23 18:55:00
12:55 PM,77.0,55.9,48,29.85,10.0,WSW,9.2,-,N/A,,Clear,250,2013-08-23 19:55:00
1:55 PM,77.0,57.9,52,29.84,10.0,West,10.4,-,N/A,,Clear,260,2013-08-23 20:55:00
2:55 PM,77.0,55.9,48,29.82,10.0,West,10.4,-,N/A,,Clear,260,2013-08-23 21:55:00
3:55 PM,75.9,55.9,50,29.81,10.0,WSW,9.2,-,N/A,,Clear,240,2013-08-23 22:55:00
4:55 PM,75.9,57.0,52,29.79,10.0,West,8.1,-,N/A,,Clear,260,2013-08-23 23:55:00
5:55 PM,73.9,55.9,53,29.78,10.0,WSW,6.9,-,N/A,,Clear,240,2013-08-24 00:55:00
6:55 PM,70.0,57.0,63,29.78,10.0,WSW,5.8,-,N/A,,Clear,240,2013-08-24 01:55:00
7:55 PM,64.9,59.0,81,29.78,10.0,West,4.6,-,N/A,,Clear,260,2013-08-24 02:55:00
8:55 PM,63.0,57.9,84,29.80,10.0,West,4.6,-,N/A,,Clear,280,2013-08-24 03:55:00
9:55 PM,63.0,57.9,84,29.81,9.0,Calm,Calm,-,N/A,,Clear,0,2013-08-24 04:55:00
10:55 PM,63.0,57.9,84,29.81,8.0,Calm,Calm,-,N/A,,Clear,0,2013-08-24 05:55:00
11:55 PM,61.0,57.0,87,29.83,8.0,Calm,Calm,-,N/A,,Clear,0,2013-08-24 06:55:00